EW4767 Weather Reports


time (UTC)temp
F
wind
direction
speed
knots
gust
knots
rain 1hr
in
rain 24hr
in
rain mn
in
humidity
%
barometer
mb
20260510203020 64 273 7.0 13.0 0.00 0.00 0.00 38 1012.3
20260510201517 64 319 4.3 12.2 0.00 0.00 0.00 41 1012.3
20260510200014 64 257 7.8 13.0 0.00 0.00 0.00 41 1012.3
20260510194514 64 306 5.2 15.6 0.00 0.00 0.00 42 1012.3
20260510193030 64 241 7.8 17.4 0.00 0.01 0.00 41 1012.3
20260510191534 63 247 6.1 11.3 0.00 0.01 0.00 47 1012.4
20260510190031 62 279 7.0 13.0 0.00 0.01 0.00 52 1012.5
20260510184520 62 330 5.2 13.0 0.00 0.01 0.00 56 1012.4
20260510183020 61 275 5.2 14.8 0.00 0.01 0.00 59 1012.7
20260510181518 61 325 5.2 13.0 0.00 0.01 0.00 58 1012.7
20260510180012 62 254 5.2 12.2 0.00 0.02 0.00 57 1012.8
20260510174523 61 329 3.5 10.4 0.00 0.04 0.00 56 1012.5
20260510173025 60 322 5.2 10.4 0.00 0.05 0.00 58 1012.5
20260510171532 60 300 4.3 8.7 0.00 0.06 0.00 62 1012.3
20260510170023 59 269 7.0 11.3 0.00 0.08 0.00 63 1012.6
20260510164521 59 322 7.8 13.0 0.00 0.09 0.00 63 1012.7
20260510163017 58 302 7.8 13.9 0.00 0.10 0.00 63 1012.6
20260510161526 58 340 4.3 10.4 0.00 0.11 0.00 67 1012.7
20260510160031 57 293 3.5 12.2 0.00 0.12 0.00 66 1012.8
20260510154528 56 352 3.5 12.2 0.00 0.14 0.00 70 1012.7
20260510153036 56 345 7.8 13.9 0.00 0.15 0.00 76 1012.7
20260510151526 56 301 4.3 13.0 0.00 0.18 0.00 83 1012.5
20260510150021 56 287 6.1 12.2 0.00 0.19 0.00 84 1012.1
20260510144516 55 321 4.3 10.4 0.00 0.22 0.00 84 1011.9
20260510143028 56 272 6.1 13.9 0.00 0.24 0.00 83 1011.8
20260510141513 56 249 3.5 7.0 0.00 0.27 0.00 86 1011.4
20260510140008 55 255 0.9 1.7 0.00 0.29 0.00 89 1011.3
20260510134508 55 312 0.9 2.6 0.00 0.30 0.00 89 1011.1
20260510133006 55 303 3.5 6.1 0.00 0.31 0.00 88 1011.4
20260510131522 55 318 0.9 3.5 0.00 0.32 0.00 89 1011.1
20260510130018 55 222 0.9 3.5 0.00 0.33 0.00 90 1011.0
20260510124516 53 251 1.7 2.6 0.00 0.34 0.00 93 1010.7
20260510123014 52 258 0.9 2.6 0.00 0.35 0.00 94 1010.8
20260510121511 52 227 0.9 5.2 0.00 0.35 0.00 94 1010.7
20260510120010 52 267 0.9 2.6 0.00 0.36 0.00 95 1010.7
20260510114526 51 268 0.9 4.3 0.00 0.36 0.00 95 1010.3
20260510113034 51 148 1.7 2.6 0.00 0.36 0.00 95 1010.2
20260510111522 51 219 1.7 6.1 0.00 0.36 0.00 95 1010.3
20260510110036 51 196 0.9 4.3 0.00 0.36 0.00 96 1010.1
20260510104513 51 213 1.7 4.3 0.00 0.36 0.00 96 1010.0
20260510103012 50 255 1.7 5.2 0.00 0.36 0.00 96 1009.9
20260510101508 50 257 1.7 4.3 0.00 0.36 0.00 96 1009.7
20260510100031 50 238 0.0 1.7 0.00 0.36 0.00 96 1009.4
20260510094535 50 178 0.9 2.6 0.00 0.36 0.00 96 1009.2
20260510093022 50 246 1.7 3.5 0.00 0.36 0.00 96 1008.9
20260510091519 50 185 0.0 1.7 0.00 0.36 0.00 96 1008.7
20260510090015 50 288 0.0 3.5 0.00 0.36 0.00 96 1008.8
20260510084513 50 259 0.0 1.7 0.00 0.36 0.00 96 1008.6
20260510083027 50 257 0.9 1.7 0.00 0.36 0.00 96 1008.8
20260510081536 50 216 0.9 4.3 0.00 0.36 0.00 96 1008.8
20260510080039 51 213 0.9 2.6 0.00 0.36 0.00 96 1009.0
20260510074526 51 157 0.0 5.2 0.00 0.36 0.00 96 1008.5
20260510073032 51 132 0.9 1.7 0.00 0.36 0.00 95 1008.3
20260510071518 51 144 0.0 1.7 0.00 0.36 0.00 95 1008.7
20260510070013 51 154 0.0 1.7 0.00 0.36 0.00 95 1009.0
20260510064527 51 244 0.0 1.7 0.00 0.36 0.00 95 1009.2
20260510063034 51 257 0.0 1.7 0.00 0.36 0.00 94 1009.3
20260510061526 52 292 1.7 3.5 0.00 0.36 0.00 94 1009.5
20260510060034 52 292 1.7 2.6 0.00 0.36 0.00 94 1009.3
20260510054522 52 254 0.0 2.6 0.00 0.36 0.00 94 1009.1
20260510053018 52 154 0.9 5.2 0.00 0.36 0.00 94 1009.0
20260510051530 52 253 0.9 3.5 0.00 0.36 0.00 94 1008.7
20260510050029 52 176 0.9 2.6 0.00 0.36 0.00 94 1008.8
20260510044528 52 242 0.0 4.3 0.00 0.36 0.00 94 1008.7
20260510043025 52 230 1.7 5.2 0.00 0.36 0.00 94 1008.9
20260510041526 52 208 1.7 7.0 0.00 0.36 0.00 93 1008.9
20260510040023 52 261 0.9 3.5 0.00 0.36 0.00 93 1008.8
20260510034518 52 235 0.9 2.6 0.00 0.36 0.36 93 1008.8
20260510033016 52 290 0.9 1.7 0.00 0.36 0.36 94 1008.9
20260510031520 52 196 0.9 4.3 0.00 0.36 0.36 94 1008.6
20260510030007 52 165 0.9 3.5 0.00 0.36 0.36 94 1008.7
20260510024505 52 153 0.0 3.5 0.00 0.36 0.36 94 1009.0
20260510023024 52 98 0.0 1.7 0.00 0.36 0.36 94 1009.0
20260510021548 52 203 0.9 3.5 0.00 0.36 0.36 94 1008.9
20260510020016 52 201 1.7 5.2 0.00 0.36 0.36 94 1008.8
20260510014530 52 176 0.0 4.3 0.00 0.36 0.36 95 1009.0
20260510013012 52 152 0.9 5.2 0.00 0.36 0.36 95 1008.7
20260510011511 52 352 0.0 3.5 0.00 0.36 0.36 95 1009.1
20260510010017 52 162 0.9 2.6 0.00 0.36 0.36 95 1008.9
20260510004524 52 140 0.0 1.7 0.00 0.36 0.36 95 1008.7
20260510003023 52 217 0.0 1.7 0.00 0.36 0.36 95 1008.8
20260510001519 52 219 0.0 1.7 0.00 0.36 0.36 95 1008.6
20260510000016 52 79 0.0 1.7 0.00 0.36 0.36 95 1008.3
20260509234513 52 112 0.0 1.7 0.00 0.36 0.36 95 1008.1
20260509233008 52 112 0.0 1.7 0.00 0.36 0.36 95 1008.0
20260509231525 53 132 0.0 1.7 0.00 0.36 0.36 96 1007.8
20260509230034 52 109 0.0 1.7 0.00 0.36 0.36 96 1007.7
20260509224523 52 99 0.0 1.7 0.00 0.36 0.36 96 1007.9
20260509223019 52 160 0.0 1.7 0.00 0.36 0.36 96 1007.8
20260509221514 52 94 0.0 1.7 0.00 0.36 0.36 96 1007.8
20260509220015 51 51 0.0 1.7 0.00 0.36 0.36 96 1008.0
20260509214528 51 87 0.0 1.7 0.00 0.36 0.36 96 1008.3
20260509213031 50 87 0.0 1.7 0.00 0.36 0.36 96 1008.5
20260509211524 50 130 0.0 1.7 0.00 0.36 0.36 96 1008.6
20260509210024 50 49 0.0 1.7 0.00 0.36 0.36 96 1008.7
20260509204519 50 138 0.0 1.7 0.00 0.36 0.36 95 1008.7